Sigil TimeFrame

Sigil TimeFrame ⇒ XML

NameTime LeftWindow Opens
Animated Captain17d 11:012018-09-29 18:20:00
Old World Drake17d 10:062018-09-29 19:15:00
Hackerphage, Protector of the Gateway1d 12:372018-10-15 16:44:00
Windstrike The Vile1d 02:402018-10-16 02:41:00
Straya, the Underworld Ruler1d 01:202018-10-16 04:01:00
Grivvek, Protector of the Brood1d 00:072018-10-16 05:14:00
Archdevil Yirkon0d 22:282018-10-16 06:53:00
Lord Xordam0d 22:262018-10-16 06:55:00
Ganja the Stone Golem0d 20:242018-10-16 08:57:00
Slashbrood, Devourer of the Blackness0d 19:062018-10-16 10:15:00
Terrance, Rebel of Rallis0d 13:512018-10-16 15:30:00
Threk, King of Lords0d 13:442018-10-16 15:37:00
Crolvak, the Fire Master0d 11:342018-10-16 17:47:00
Bloodchill the Grizzly0d 11:192018-10-16 18:02:00
Shadow0d 08:192018-10-16 21:02:00
Numerocure, The Black Messenger of Evil0d 08:172018-10-16 21:04:00
Murderface0d 07:582018-10-16 21:23:00
Crantos, Defender of Ultimation0d 07:202018-10-16 22:01:00
Crane0d 06:162018-10-16 23:05:00
Jorun the Blazing Swordsman0d 06:142018-10-16 23:07:00
Detox0d 05:102018-10-17 00:11:00
Brutalitar, Lord of the Underworld0d 05:012018-10-17 00:20:00
Wanhiroeaz the Devourer0d 04:052018-10-17 01:16:00
Synge, The Red Dragon0d 04:022018-10-17 01:19:00
Dreg nor, Keeper of the Infernal Essence0d 03:432018-10-17 01:38:00
Ebliss, Fallen Angel of Despair0d 02:502018-10-17 02:31:00
Freezebreed, The Frozen Manipulator0d 00:312018-10-17 04:50:00
Vitkros, Hydra of the Deep0d 00:072018-10-17 05:14:00
Lord Varan0d 01:022018-10-17 06:24:00
Anguish0d 03:372018-10-17 08:59:00
Pinosis0d 05:002018-10-17 10:22:00
Volgan the Living Ironbark0d 05:112018-10-17 10:33:00
Sylvanna TorLai0d 05:482018-10-17 11:10:00
Quiver, The Renegade0d 06:242018-10-17 11:46:00
Nafir, God of Desolation0d 06:262018-10-17 11:48:00
Karvaz, Lord of Alsayic0d 06:352018-10-17 11:57:00
Zikkir the Dark Archer0d 06:472018-10-17 12:09:00
Lord Narada0d 07:042018-10-17 12:26:00
Tsort0d 08:252018-10-17 13:47:00
Skybrine The Inescapable0d 09:202018-10-17 14:42:00
Sarcrina the Astral Priestess0d 09:392018-10-17 15:01:00
Gnorb0d 09:512018-10-17 15:13:00
Zertan, The Collector0d 10:092018-10-17 15:31:00
Baron Mu, Dark Rider of the Undead0d 10:172018-10-17 15:39:00
Garland, The Lord Keeper0d 10:292018-10-17 15:51:00
Rancid, Lord of Thugs0d 10:472018-10-17 16:09:00
Esquin, the Kinetic Master0d 12:342018-10-17 17:56:00
Great Lord Ganeshan0d 12:362018-10-17 17:58:00
The Emerald Assassin0d 12:372018-10-17 17:59:00
Bolkor, the Holy Master0d 12:512018-10-17 18:13:00
Felroc, Overseer of Hellfire0d 13:202018-10-17 18:42:00
Kro Shuk, Doomslayer0d 16:262018-10-17 21:48:00
Keeper of Nature0d 16:362018-10-17 21:58:00
Jazzmin, Maiden of Vitality0d 18:302018-10-17 23:52:00
Lady Ariella0d 18:362018-10-17 23:58:00
Samatha Dark-Soul1d 00:342018-10-18 05:56:00
Lord Sibannac1d 02:552018-10-18 08:17:00
Ormsul the Putrid1d 03:052018-10-18 08:27:00
Mistress of the Sword1d 03:362018-10-18 08:58:00
Melt Bane, The Forbidden Demon Dragon1d 04:182018-10-18 09:40:00
Xynak, the Arcane Master1d 05:172018-10-18 10:39:00
Nessam1d 05:592018-10-18 11:21:00
Hyrak, Bringer of Nightmares1d 06:032018-10-18 11:25:00
Tylos, The Lord Master1d 06:382018-10-18 12:00:00
Nayark the Mummified Sorcerer1d 07:222018-10-18 12:44:00
Traxodon the Plaguebringer1d 07:482018-10-18 13:10:00
Lady Chaos, Queen of the Abyss1d 08:072018-10-18 13:29:00
Smoot the Yeti1d 08:162018-10-18 13:38:00
Gorganus of the Wood1d 09:012018-10-18 14:23:00
Ancient Magus Tarkin1d 09:262018-10-18 14:48:00
Emperor Neudeus, Controller of the Universe1d 10:202018-10-18 15:42:00
Amalgamated Apparition1d 11:092018-10-18 16:31:00
Rotborn, Eater of the Dead1d 11:262018-10-18 16:48:00
Anvilfist1d 13:062018-10-18 18:28:00
Ag Nabak the Abomination1d 20:162018-10-19 01:38:00
King Ashnar, Lord of the Unliving2d 01:152018-10-19 06:37:00
Viserion, the Necrodragon2d 02:312018-10-19 07:53:00
Sigil, Lich of Woe2d 02:322018-10-19 07:54:00
Akkel the Enflamed Warrior2d 03:272018-10-19 08:49:00
Lacuste of the Swarm2d 09:422018-10-19 15:04:00
Raiyar, the Shadow Master2d 10:112018-10-19 15:33:00
Nar Zhul, Slayer of All2d 13:392018-10-19 19:01:00
Lord Suka2d 14:032018-10-19 19:25:00
Dlanod, the Crazed Chancellor2d 19:262018-10-20 00:48:00
Q-SEC Commander3d 04:202018-10-20 09:42:00
Kretok, Descendant of Nature3d 05:142018-10-20 10:36:00
Howldroid, Tormentor of the Pit3d 15:052018-10-20 20:27:00
Skarthul the Avenged4d 03:312018-10-21 08:53:00
Varsanor, Master of Darkness4d 11:292018-10-21 16:51:00
Balerion, Dragon of Dread5d 01:192018-10-22 06:41:00
Shaik, Servant of Arkron102d 00:562018-07-07 04:25:00
Rook, Hand of Arkron100d 02:462018-07-09 02:35:00
Beast of Cards42d 16:382018-09-04 12:43:00
Noxious Slug36d 06:002018-09-10 23:21:00
Jade Dragonite17d 10:142018-09-29 19:07:00
95 Gods, Last update: 2018-10-17 05:15:03